Falfurrias, TX

5:06 AM CST on November 22, 2019 (GMT -0600)
Falfurrias

Weather History for KBKS - August, 2019

Change the Weather History Date:

Monday, August 19, 2019

  Actual Average (KNQI) Record (KNQI)
Temperature  
Mean Temperature 92 °F -  
Max Temperature 103 °F 93 °F 102 °F (2010)
Min Temperature 80 °F 73 °F 68 °F (2013)
Cooling Degree Days 26    
Growing Degree Days 42 (Base 50)    
Moisture  
Dew Point 75 °F    
Average Humidity 64    
Maximum Humidity 90    
Minimum Humidity 30    
Precipitation  
Precipitation 0.00 in - - ()
Sea Level Pressure  
Sea Level Pressure 29.91 in    
Wind  
Wind Speed 7 mph ()    
Max Wind Speed 17 mph    
Max Gust Speed 26 mph    
Visibility 9.3 miles    
Events      
Averages and records for this station are not official NWS values.
T = Trace of Precipitation, MM = Missing Value Source: Averaged Metar Reports

Daily Weather History Graph

Daily Weather History Graph

Search for Another Location

Airport or City:

Astronomy

Aug. 19, 2019 Rise Set
Actual Time 7:05 AM CDT 8:06 PM CDT
Civil Twilight 6:41 AM CDT 8:30 PM CDT
Nautical Twilight 6:12 AM CDT 8:59 PM CDT
Astronomical Twilight 5:43 AM CDT 9:28 PM CDT
Moon 10:48 PM CDT (8/19) 10:30 AM CDT (8/19)
Length of Visible Light 13h 49m
Length of Day
13h 00m
Waning Gibbous, 85% of the Moon is Illuminated
Aug 19
Waning Gibbous
Aug 23
Last Quarter
Aug 30
New
Sep 5
First Quarter
Sep 13
Full

Hourly Weather History & Observations

Time (CDT) Temp. Heat Index Dew Point Humidity Pressure Visibility Wind Dir Wind Speed Gust Speed Precip Events Conditions
12:15 AM 84.2 °F 94.1 °F 77.0 °F 79% 29.91 in 10.0 mi ESE 3.5 mph - N/A   Clear
12:35 AM 83.5 °F 92.9 °F 77.0 °F 81% 29.91 in 10.0 mi ESE 3.5 mph - N/A   Clear
12:55 AM 82.9 °F 91.8 °F 77.0 °F 82% 29.91 in 10.0 mi ESE 3.5 mph - N/A   Clear
1:15 AM 82.4 °F 90.9 °F 77.0 °F 84% 29.91 in 10.0 mi ESE 3.5 mph - N/A   Clear
1:35 AM 82.2 °F 90.4 °F 77.0 °F 84% 29.91 in 10.0 mi ESE 4.6 mph - N/A   Clear
1:55 AM 82.0 °F 90.2 °F 77.2 °F 85% 29.91 in 10.0 mi SE 4.6 mph - N/A   Clear
2:15 AM 82.4 °F 91.5 °F 77.7 °F 86% 29.90 in 10.0 mi SE 5.8 mph - N/A   Clear
2:35 AM 82.6 °F 92.0 °F 77.9 °F 86% 29.90 in 10.0 mi ESE 4.6 mph - N/A   Clear
2:55 AM 82.6 °F 92.0 °F 77.9 °F 86% 29.90 in 10.0 mi ESE 4.6 mph - N/A   Scattered Clouds
3:15 AM 82.6 °F 92.0 °F 77.9 °F 86% 29.90 in 10.0 mi ESE 3.5 mph - N/A   Scattered Clouds
3:35 AM 82.0 °F 90.5 °F 77.5 °F 86% 29.90 in 10.0 mi ESE 4.6 mph - N/A   Scattered Clouds
3:55 AM 81.9 °F 90.2 °F 77.7 °F 87% 29.90 in 10.0 mi ESE 4.6 mph - N/A   Scattered Clouds
4:15 AM 82.0 °F 90.8 °F 77.9 °F 87% 29.89 in 10.0 mi SE 5.8 mph - N/A   Clear
4:35 AM 82.0 °F 90.8 °F 77.9 °F 87% 29.90 in 10.0 mi ESE 4.6 mph - N/A   Clear
4:55 AM 81.9 °F 90.5 °F 77.9 °F 88% 29.90 in 10.0 mi ESE 5.8 mph - N/A   Clear
5:15 AM 81.7 °F 90.0 °F 77.9 °F 88% 29.90 in 10.0 mi ESE 3.5 mph - N/A   Clear
5:35 AM 81.1 °F 88.7 °F 77.5 °F 89% 29.91 in 10.0 mi East 3.5 mph - N/A   Clear
5:55 AM 80.8 °F 87.6 °F 77.4 °F 89% 29.91 in 10.0 mi East 3.5 mph - N/A   Clear
6:15 AM 80.8 °F 87.8 °F 77.5 °F 90% 29.91 in 10.0 mi SE 4.6 mph - N/A   Clear
6:35 AM 81.1 °F 88.7 °F 77.7 °F 89% 29.91 in 10.0 mi ESE 4.6 mph - N/A   Clear
6:55 AM 81.0 °F 88.1 °F 77.5 °F 89% 29.92 in 7.0 mi ESE 4.6 mph - N/A   Clear
7:15 AM 81.0 °F 88.1 °F 77.5 °F 89% 29.93 in 7.0 mi East 4.6 mph - N/A   Clear
7:35 AM 81.1 °F 88.7 °F 77.7 °F 89% 29.93 in 7.0 mi East 4.6 mph - N/A   Clear
7:55 AM 81.9 °F 90.5 °F 77.9 °F 88% 29.93 in 7.0 mi ESE 4.6 mph - N/A   Clear
8:15 AM 83.1 °F 92.9 °F 77.9 °F 84% 29.93 in 7.0 mi ESE 5.8 mph - N/A   Clear
8:35 AM 84.9 °F 96.1 °F 77.9 °F 79% 29.94 in 10.0 mi SE 6.9 mph - N/A   Clear
8:55 AM 86.7 °F 98.8 °F 77.4 °F 74% 29.95 in 10.0 mi SE 8.1 mph 11.5 mph N/A   Clear
9:15 AM 88.5 °F 101.1 °F 77.2 °F 69% 29.95 in 10.0 mi SE 9.2 mph - N/A   Clear
9:35 AM 89.2 °F 100.7 °F 76.3 °F 65% 29.96 in 10.0 mi SE 11.5 mph 18.4 mph N/A   Scattered Clouds
9:55 AM 91.4 °F 101.9 °F 74.7 °F 58% 29.96 in 10.0 mi SE 11.5 mph - N/A   Scattered Clouds
10:15 AM 91.8 °F 101.5 °F 74.1 °F 56% 29.96 in 10.0 mi SSE 13.8 mph 18.4 mph N/A   Scattered Clouds
10:35 AM 91.9 °F 101.3 °F 73.8 °F 55% 29.96 in 10.0 mi SE 11.5 mph 19.6 mph N/A   Scattered Clouds
10:55 AM 94.1 °F 103.8 °F 73.6 °F 51% 29.96 in 10.0 mi SE 15.0 mph 19.6 mph N/A   Mostly Cloudy
11:15 AM 94.8 °F 104.1 °F 72.7 °F 49% 29.95 in 10.0 mi SSE 13.8 mph 18.4 mph N/A   Scattered Clouds
11:35 AM 96.8 °F 105.8 °F 72.0 °F 45% 29.95 in 10.0 mi SSE 13.8 mph 21.9 mph N/A   Scattered Clouds
11:55 AM 97.0 °F 104.1 °F 70.3 °F 42% 29.95 in 10.0 mi SE 11.5 mph - N/A   Scattered Clouds
12:15 PM 98.4 °F 105.1 °F 69.8 °F 39% 29.95 in 10.0 mi SSE 11.5 mph 19.6 mph N/A   Mostly Cloudy
12:35 PM 98.8 °F 105.1 °F 69.3 °F 38% 29.94 in 10.0 mi SE 8.1 mph 19.6 mph N/A   Scattered Clouds
12:55 PM 98.4 °F 104.4 °F 68.9 °F 38% 29.93 in 10.0 mi SE 9.2 mph 16.1 mph N/A   Scattered Clouds
1:15 PM 97.7 °F 103.6 °F 68.5 °F 39% 29.93 in 10.0 mi SE 10.4 mph - N/A   Mostly Cloudy
1:30 PM 100.8 °F 106.3 °F 67.6 °F 34% 29.92 in 10.0 mi SSE 9.2 mph 18.4 mph N/A   Scattered Clouds
1:55 PM 101.3 °F 106.7 °F 66.9 °F 33% 29.91 in 10.0 mi SE 11.5 mph 19.6 mph N/A   Clear
2:15 PM 102.6 °F 106.9 °F 65.8 °F 30% 29.90 in 10.0 mi SE 10.4 mph 18.4 mph N/A   Clear
2:35 PM 102.4 °F 107.3 °F 66.2 °F 31% 29.90 in 10.0 mi East 8.1 mph - N/A   Clear
2:55 PM 101.3 °F 105.9 °F 66.6 °F 32% 29.88 in 10.0 mi SE 8.1 mph - N/A   Scattered Clouds
3:15 PM 103.3 °F 112.4 °F 70.5 °F 35% 29.87 in 10.0 mi East 11.5 mph 19.6 mph N/A   Clear
3:35 PM 101.5 °F 109.3 °F 70.3 °F 36% 29.87 in 10.0 mi ESE 10.4 mph 18.4 mph N/A   Scattered Clouds
3:55 PM 102.0 °F 111.3 °F 71.1 °F 37% 29.86 in 10.0 mi SE 9.2 mph - N/A   Scattered Clouds
4:15 PM 101.1 °F 110.1 °F 71.2 °F 38% 29.86 in 10.0 mi SE 6.9 mph 18.4 mph N/A   Clear
4:35 PM 101.5 °F 109.3 °F 70.3 °F 36% 29.86 in 10.0 mi ESE 11.5 mph 16.1 mph N/A   Scattered Clouds
5:15 PM 101.3 °F 111.4 °F 72.5 °F 39% 29.86 in 10.0 mi SE 17.3 mph 23.0 mph N/A   Scattered Clouds
5:35 PM 100.0 °F 111.8 °F 74.1 °F 43% 29.86 in 7.0 mi East 16.1 mph 23.0 mph N/A   Scattered Clouds
5:55 PM 99.3 °F 110.1 °F 73.4 °F 43% 29.86 in 7.0 mi ESE 15.0 mph 25.3 mph N/A   Scattered Clouds
6:15 PM 98.6 °F 109.2 °F 73.2 °F 44% 29.86 in 7.0 mi SE 16.1 mph 26.5 mph N/A   Scattered Clouds
6:35 PM 98.1 °F 108.7 °F 73.6 °F 45% 29.86 in 7.0 mi ESE 17.3 mph 25.3 mph N/A   Clear
6:55 PM 95.9 °F 107.4 °F 74.5 °F 50% 29.87 in 7.0 mi ESE 17.3 mph 26.5 mph N/A   Clear
7:15 PM 94.5 °F 106.0 °F 75.2 °F 53% 29.87 in 7.0 mi ESE 12.7 mph 23.0 mph N/A   Clear
7:35 PM 93.2 °F 105.0 °F 75.4 °F 56% 29.88 in 7.0 mi ESE 15.0 mph 19.6 mph N/A   Scattered Clouds
7:55 PM 91.9 °F 103.2 °F 75.2 °F 58% 29.88 in 10.0 mi ESE 15.0 mph 19.6 mph N/A   Clear
8:15 PM 91.4 °F 102.5 °F 75.2 °F 59% 29.89 in 10.0 mi ESE 10.4 mph 17.3 mph N/A   Clear
8:55 PM 89.6 °F 101.0 °F 75.7 °F 64% 29.91 in 10.0 mi ESE 10.4 mph 19.6 mph N/A   Clear
9:15 PM 88.9 °F 100.3 °F 76.1 °F 66% 29.92 in 10.0 mi ESE 10.4 mph 17.3 mph N/A   Clear
9:35 PM 88.5 °F 99.9 °F 76.1 °F 67% 29.92 in 10.0 mi ESE 12.7 mph 17.3 mph N/A   Clear
9:55 PM 88.0 °F 99.6 °F 76.5 °F 69% 29.93 in 10.0 mi SE 10.4 mph - N/A   Clear
10:15 PM 87.4 °F 99.2 °F 76.8 °F 71% 29.94 in 10.0 mi ESE 11.5 mph - N/A   Clear
10:35 PM 87.1 °F 98.8 °F 77.0 °F 72% 29.96 in 10.0 mi ESE 8.1 mph - N/A   Clear
10:55 PM 86.4 °F 97.8 °F 77.4 °F 74% 29.96 in 7.0 mi ESE 6.9 mph - N/A   Clear
11:15 PM 86.0 °F 97.8 °F 77.5 °F 76% 29.97 in 7.0 mi SE 6.9 mph - N/A   Clear
11:35 PM 86.0 °F 98.3 °F 77.9 °F 77% 29.97 in 7.0 mi ESE 6.9 mph - N/A   Clear
11:55 PM 85.5 °F 97.2 °F 77.9 °F 78% 29.97 in 7.0 mi SE 6.9 mph - N/A   Clear